<?xml version="1.0" encoding="utf-8"?>
<gpx xmlns:xsi="http://www.w3.org/2001/XMLSchema-instance" xmlns:xsd="http://www.w3.org/2001/XMLSchema" version="1.1" creator="Shapelink.com" xmlns="http://www.topografix.com/GPX/1/1" xmlns:gpxtpx="http://www.garmin.com/xmlschemas/TrackPointExtension/v1">
  <metadata>
    <name>Gåing 5.30 km, 2017-07-30</name>
    <desc></desc>
    <author><name>Alexander Engvall</name></author> 
    <time>1970-01-01T01:00:00Z</time>
  </metadata>
  <trk>
    <name>Gåing 5.30 km, 2017-07-30</name>
    <trkseg>
      <trkpt lat="62.778507" lon="14.294429">
        <ele>424</ele>
        <time>1970-01-01T01:00:00Z</time>
      </trkpt>
      <trkpt lat="62.778481" lon="14.294606">
        <ele>424</ele>
        <time>1970-01-01T01:00:00Z</time>
      </trkpt>
      <trkpt lat="62.778436" lon="14.294768">
        <ele>424</ele>
        <time>1970-01-01T01:00:00Z</time>
      </trkpt>
      <trkpt lat="62.778424" lon="14.294955">
        <ele>424</ele>
        <time>1970-01-01T01:00:00Z</time>
      </trkpt>
      <trkpt lat="62.778428" lon="14.295137">
        <ele>424</ele>
        <time>1970-01-01T01:00:00Z</time>
      </trkpt>
      <trkpt lat="62.778394" lon="14.29531">
        <ele>424</ele>
        <time>1970-01-01T01:00:00Z</time>
      </trkpt>
      <trkpt lat="62.778353" lon="14.295465">
        <ele>424</ele>
        <time>1970-01-01T01:00:00Z</time>
      </trkpt>
      <trkpt lat="62.778324" lon="14.295646">
        <ele>424</ele>
        <time>1970-01-01T01:00:00Z</time>
      </trkpt>
      <trkpt lat="62.778291" lon="14.295816">
        <ele>424</ele>
        <time>1970-01-01T01:00:00Z</time>
      </trkpt>
      <trkpt lat="62.778238" lon="14.295959">
        <ele>424</ele>
        <time>1970-01-01T01:00:00Z</time>
      </trkpt>
      <trkpt lat="62.778182" lon="14.296105">
        <ele>424</ele>
        <time>1970-01-01T01:00:00Z</time>
      </trkpt>
      <trkpt lat="62.778118" lon="14.296217">
        <ele>424</ele>
        <time>1970-01-01T01:00:00Z</time>
      </trkpt>
      <trkpt lat="62.778065" lon="14.296379">
        <ele>424</ele>
        <time>1970-01-01T01:00:00Z</time>
      </trkpt>
      <trkpt lat="62.77801" lon="14.29651">
        <ele>424</ele>
        <time>1970-01-01T01:00:00Z</time>
      </trkpt>
      <trkpt lat="62.777957" lon="14.296659">
        <ele>424</ele>
        <time>1970-01-01T01:00:00Z</time>
      </trkpt>
      <trkpt lat="62.777913" lon="14.296809">
        <ele>424.091</ele>
        <time>1970-01-01T01:00:00Z</time>
      </trkpt>
      <trkpt lat="62.777873" lon="14.296976">
        <ele>424.182</ele>
        <time>1970-01-01T01:00:00Z</time>
      </trkpt>
      <trkpt lat="62.777815" lon="14.297103">
        <ele>424.273</ele>
        <time>1970-01-01T01:00:00Z</time>
      </trkpt>
      <trkpt lat="62.777757" lon="14.29725">
        <ele>424.364</ele>
        <time>1970-01-01T01:00:00Z</time>
      </trkpt>
      <trkpt lat="62.777705" lon="14.29739">
        <ele>424.455</ele>
        <time>1970-01-01T01:00:00Z</time>
      </trkpt>
      <trkpt lat="62.77765" lon="14.297532">
        <ele>424.545</ele>
        <time>1970-01-01T01:00:00Z</time>
      </trkpt>
      <trkpt lat="62.777614" lon="14.297707">
        <ele>424.636</ele>
        <time>1970-01-01T01:00:00Z</time>
      </trkpt>
      <trkpt lat="62.777592" lon="14.297886">
        <ele>424.727</ele>
        <time>1970-01-01T01:00:00Z</time>
      </trkpt>
      <trkpt lat="62.777584" lon="14.298077">
        <ele>424.818</ele>
        <time>1970-01-01T01:00:00Z</time>
      </trkpt>
      <trkpt lat="62.777551" lon="14.29826">
        <ele>424.909</ele>
        <time>1970-01-01T01:00:00Z</time>
      </trkpt>
      <trkpt lat="62.77751" lon="14.298416">
        <ele>425</ele>
        <time>1970-01-01T01:00:00Z</time>
      </trkpt>
      <trkpt lat="62.777459" lon="14.298577">
        <ele>425</ele>
        <time>1970-01-01T01:00:00Z</time>
      </trkpt>
      <trkpt lat="62.777467" lon="14.298767">
        <ele>425</ele>
        <time>1970-01-01T01:00:00Z</time>
      </trkpt>
      <trkpt lat="62.777531" lon="14.298903">
        <ele>425</ele>
        <time>1970-01-01T01:00:00Z</time>
      </trkpt>
      <trkpt lat="62.777592" lon="14.299023">
        <ele>425</ele>
        <time>1970-01-01T01:00:00Z</time>
      </trkpt>
      <trkpt lat="62.777676" lon="14.299195">
        <ele>425.091</ele>
        <time>1970-01-01T01:00:00Z</time>
      </trkpt>
      <trkpt lat="62.777708" lon="14.29936">
        <ele>425.182</ele>
        <time>1970-01-01T01:00:00Z</time>
      </trkpt>
      <trkpt lat="62.777755" lon="14.29951">
        <ele>425.273</ele>
        <time>1970-01-01T01:00:00Z</time>
      </trkpt>
      <trkpt lat="62.7778" lon="14.299659">
        <ele>425.364</ele>
        <time>1970-01-01T01:00:00Z</time>
      </trkpt>
      <trkpt lat="62.777831" lon="14.299837">
        <ele>425.455</ele>
        <time>1970-01-01T01:00:00Z</time>
      </trkpt>
      <trkpt lat="62.777883" lon="14.299986">
        <ele>425.545</ele>
        <time>1970-01-01T01:00:00Z</time>
      </trkpt>
      <trkpt lat="62.77795" lon="14.300097">
        <ele>425.636</ele>
        <time>1970-01-01T01:00:00Z</time>
      </trkpt>
      <trkpt lat="62.778001" lon="14.300254">
        <ele>425.727</ele>
        <time>1970-01-01T01:00:00Z</time>
      </trkpt>
      <trkpt lat="62.778066" lon="14.300389">
        <ele>425.818</ele>
        <time>1970-01-01T01:00:00Z</time>
      </trkpt>
      <trkpt lat="62.778128" lon="14.300505">
        <ele>425.909</ele>
        <time>1970-01-01T01:00:00Z</time>
      </trkpt>
      <trkpt lat="62.778209" lon="14.300588">
        <ele>426</ele>
        <time>1970-01-01T01:00:00Z</time>
      </trkpt>
      <trkpt lat="62.778269" lon="14.300714">
        <ele>426</ele>
        <time>1970-01-01T01:00:00Z</time>
      </trkpt>
      <trkpt lat="62.778307" lon="14.300889">
        <ele>426</ele>
        <time>1970-01-01T01:00:00Z</time>
      </trkpt>
      <trkpt lat="62.778362" lon="14.301021">
        <ele>426</ele>
        <time>1970-01-01T01:00:00Z</time>
      </trkpt>
      <trkpt lat="62.778411" lon="14.301164">
        <ele>426.091</ele>
        <time>1970-01-01T01:00:00Z</time>
      </trkpt>
      <trkpt lat="62.778458" lon="14.301343">
        <ele>426.182</ele>
        <time>1970-01-01T01:00:00Z</time>
      </trkpt>
      <trkpt lat="62.778509" lon="14.301482">
        <ele>426.273</ele>
        <time>1970-01-01T01:00:00Z</time>
      </trkpt>
      <trkpt lat="62.778542" lon="14.301643">
        <ele>426.364</ele>
        <time>1970-01-01T01:00:00Z</time>
      </trkpt>
      <trkpt lat="62.778619" lon="14.301738">
        <ele>426.455</ele>
        <time>1970-01-01T01:00:00Z</time>
      </trkpt>
      <trkpt lat="62.778671" lon="14.301887">
        <ele>426.545</ele>
        <time>1970-01-01T01:00:00Z</time>
      </trkpt>
      <trkpt lat="62.778746" lon="14.302042">
        <ele>426.636</ele>
        <time>1970-01-01T01:00:00Z</time>
      </trkpt>
      <trkpt lat="62.778784" lon="14.30222">
        <ele>426.727</ele>
        <time>1970-01-01T01:00:00Z</time>
      </trkpt>
      <trkpt lat="62.778851" lon="14.302337">
        <ele>426.818</ele>
        <time>1970-01-01T01:00:00Z</time>
      </trkpt>
      <trkpt lat="62.778901" lon="14.302483">
        <ele>426.909</ele>
        <time>1970-01-01T01:00:00Z</time>
      </trkpt>
      <trkpt lat="62.778948" lon="14.302639">
        <ele>427</ele>
        <time>1970-01-01T01:00:00Z</time>
      </trkpt>
      <trkpt lat="62.77901" lon="14.302762">
        <ele>427</ele>
        <time>1970-01-01T01:00:00Z</time>
      </trkpt>
      <trkpt lat="62.779057" lon="14.302921">
        <ele>427</ele>
        <time>1970-01-01T01:00:00Z</time>
      </trkpt>
      <trkpt lat="62.77911" lon="14.303055">
        <ele>427</ele>
        <time>1970-01-01T01:00:00Z</time>
      </trkpt>
      <trkpt lat="62.779152" lon="14.303212">
        <ele>427</ele>
        <time>1970-01-01T01:00:00Z</time>
      </trkpt>
      <trkpt lat="62.77922" lon="14.303309">
        <ele>427</ele>
        <time>1970-01-01T01:00:00Z</time>
      </trkpt>
      <trkpt lat="62.779296" lon="14.303379">
        <ele>427</ele>
        <time>1970-01-01T01:00:00Z</time>
      </trkpt>
      <trkpt lat="62.779376" lon="14.303477">
        <ele>427</ele>
        <time>1970-01-01T01:00:00Z</time>
      </trkpt>
      <trkpt lat="62.779423" lon="14.303636">
        <ele>427</ele>
        <time>1970-01-01T01:00:00Z</time>
      </trkpt>
      <trkpt lat="62.779457" lon="14.303802">
        <ele>427</ele>
        <time>1970-01-01T01:00:00Z</time>
      </trkpt>
      <trkpt lat="62.779489" lon="14.303964">
        <ele>427</ele>
        <time>1970-01-01T01:00:00Z</time>
      </trkpt>
      <trkpt lat="62.779556" lon="14.304092">
        <ele>427</ele>
        <time>1970-01-01T01:00:00Z</time>
      </trkpt>
      <trkpt lat="62.779631" lon="14.304199">
        <ele>427</ele>
        <time>1970-01-01T01:00:00Z</time>
      </trkpt>
      <trkpt lat="62.779677" lon="14.304347">
        <ele>427</ele>
        <time>1970-01-01T01:00:00Z</time>
      </trkpt>
      <trkpt lat="62.779752" lon="14.304452">
        <ele>427</ele>
        <time>1970-01-01T01:00:00Z</time>
      </trkpt>
      <trkpt lat="62.779815" lon="14.304576">
        <ele>427</ele>
        <time>1970-01-01T01:00:00Z</time>
      </trkpt>
      <trkpt lat="62.779889" lon="14.304697">
        <ele>427</ele>
        <time>1970-01-01T01:00:00Z</time>
      </trkpt>
      <trkpt lat="62.779936" lon="14.304859">
        <ele>427</ele>
        <time>1970-01-01T01:00:00Z</time>
      </trkpt>
      <trkpt lat="62.779986" lon="14.305">
        <ele>427</ele>
        <time>1970-01-01T01:00:00Z</time>
      </trkpt>
      <trkpt lat="62.780016" lon="14.305165">
        <ele>427</ele>
        <time>1970-01-01T01:00:00Z</time>
      </trkpt>
      <trkpt lat="62.780044" lon="14.305354">
        <ele>427</ele>
        <time>1970-01-01T01:00:00Z</time>
      </trkpt>
      <trkpt lat="62.780072" lon="14.305539">
        <ele>427</ele>
        <time>1970-01-01T01:00:00Z</time>
      </trkpt>
      <trkpt lat="62.780111" lon="14.30571">
        <ele>427</ele>
        <time>1970-01-01T01:00:00Z</time>
      </trkpt>
      <trkpt lat="62.78014" lon="14.305886">
        <ele>427.091</ele>
        <time>1970-01-01T01:00:00Z</time>
      </trkpt>
      <trkpt lat="62.780172" lon="14.306056">
        <ele>427.091</ele>
        <time>1970-01-01T01:00:00Z</time>
      </trkpt>
      <trkpt lat="62.780206" lon="14.306221">
        <ele>427.091</ele>
        <time>1970-01-01T01:00:00Z</time>
      </trkpt>
      <trkpt lat="62.780249" lon="14.306373">
        <ele>427.091</ele>
        <time>1970-01-01T01:00:00Z</time>
      </trkpt>
      <trkpt lat="62.780296" lon="14.306529">
        <ele>427.091</ele>
        <time>1970-01-01T01:00:00Z</time>
      </trkpt>
      <trkpt lat="62.780358" lon="14.306656">
        <ele>427.091</ele>
        <time>1970-01-01T01:00:00Z</time>
      </trkpt>
      <trkpt lat="62.78042" lon="14.306773">
        <ele>427.091</ele>
        <time>1970-01-01T01:00:00Z</time>
      </trkpt>
      <trkpt lat="62.780497" lon="14.306849">
        <ele>427.091</ele>
        <time>1970-01-01T01:00:00Z</time>
      </trkpt>
      <trkpt lat="62.780585" lon="14.306864">
        <ele>427.091</ele>
        <time>1970-01-01T01:00:00Z</time>
      </trkpt>
      <trkpt lat="62.780667" lon="14.306842">
        <ele>427.091</ele>
        <time>1970-01-01T01:00:00Z</time>
      </trkpt>
      <trkpt lat="62.780752" lon="14.306812">
        <ele>427.091</ele>
        <time>1970-01-01T01:00:00Z</time>
      </trkpt>
      <trkpt lat="62.780836" lon="14.306722">
        <ele>427</ele>
        <time>1970-01-01T01:00:00Z</time>
      </trkpt>
      <trkpt lat="62.780916" lon="14.306677">
        <ele>427</ele>
        <time>1970-01-01T01:00:00Z</time>
      </trkpt>
      <trkpt lat="62.780838" lon="14.306728">
        <ele>427</ele>
        <time>1970-01-01T01:00:00Z</time>
      </trkpt>
      <trkpt lat="62.780922" lon="14.306689">
        <ele>426.909</ele>
        <time>1970-01-01T01:00:00Z</time>
      </trkpt>
      <trkpt lat="62.781006" lon="14.306633">
        <ele>426.818</ele>
        <time>1970-01-01T01:00:00Z</time>
      </trkpt>
      <trkpt lat="62.781089" lon="14.306577">
        <ele>426.727</ele>
        <time>1970-01-01T01:00:00Z</time>
      </trkpt>
      <trkpt lat="62.781166" lon="14.306512">
        <ele>426.636</ele>
        <time>1970-01-01T01:00:00Z</time>
      </trkpt>
      <trkpt lat="62.781247" lon="14.30647">
        <ele>426.545</ele>
        <time>1970-01-01T01:00:00Z</time>
      </trkpt>
      <trkpt lat="62.781332" lon="14.306491">
        <ele>426.455</ele>
        <time>1970-01-01T01:00:00Z</time>
      </trkpt>
      <trkpt lat="62.781424" lon="14.306487">
        <ele>426.364</ele>
        <time>1970-01-01T01:00:00Z</time>
      </trkpt>
      <trkpt lat="62.781517" lon="14.306502">
        <ele>426.273</ele>
        <time>1970-01-01T01:00:00Z</time>
      </trkpt>
      <trkpt lat="62.781602" lon="14.306541">
        <ele>426.182</ele>
        <time>1970-01-01T01:00:00Z</time>
      </trkpt>
      <trkpt lat="62.781686" lon="14.306606">
        <ele>426.091</ele>
        <time>1970-01-01T01:00:00Z</time>
      </trkpt>
      <trkpt lat="62.781767" lon="14.306674">
        <ele>426</ele>
        <time>1970-01-01T01:00:00Z</time>
      </trkpt>
      <trkpt lat="62.781846" lon="14.306774">
        <ele>426</ele>
        <time>1970-01-01T01:00:00Z</time>
      </trkpt>
      <trkpt lat="62.781915" lon="14.306893">
        <ele>426</ele>
        <time>1970-01-01T01:00:00Z</time>
      </trkpt>
      <trkpt lat="62.781982" lon="14.307002">
        <ele>426</ele>
        <time>1970-01-01T01:00:00Z</time>
      </trkpt>
      <trkpt lat="62.782043" lon="14.307145">
        <ele>426</ele>
        <time>1970-01-01T01:00:00Z</time>
      </trkpt>
      <trkpt lat="62.782122" lon="14.307223">
        <ele>426</ele>
        <time>1970-01-01T01:00:00Z</time>
      </trkpt>
      <trkpt lat="62.782192" lon="14.307337">
        <ele>426</ele>
        <time>1970-01-01T01:00:00Z</time>
      </trkpt>
      <trkpt lat="62.782241" lon="14.307534">
        <ele>426</ele>
        <time>1970-01-01T01:00:00Z</time>
      </trkpt>
      <trkpt lat="62.78232" lon="14.307642">
        <ele>426</ele>
        <time>1970-01-01T01:00:00Z</time>
      </trkpt>
      <trkpt lat="62.782389" lon="14.307765">
        <ele>426</ele>
        <time>1970-01-01T01:00:00Z</time>
      </trkpt>
      <trkpt lat="62.782442" lon="14.307915">
        <ele>425.909</ele>
        <time>1970-01-01T01:00:00Z</time>
      </trkpt>
      <trkpt lat="62.782494" lon="14.308054">
        <ele>425.818</ele>
        <time>1970-01-01T01:00:00Z</time>
      </trkpt>
      <trkpt lat="62.78255" lon="14.308182">
        <ele>425.727</ele>
        <time>1970-01-01T01:00:00Z</time>
      </trkpt>
      <trkpt lat="62.782607" lon="14.308332">
        <ele>425.636</ele>
        <time>1970-01-01T01:00:00Z</time>
      </trkpt>
      <trkpt lat="62.782633" lon="14.308519">
        <ele>425.545</ele>
        <time>1970-01-01T01:00:00Z</time>
      </trkpt>
      <trkpt lat="62.782665" lon="14.308712">
        <ele>425.455</ele>
        <time>1970-01-01T01:00:00Z</time>
      </trkpt>
      <trkpt lat="62.782685" lon="14.308903">
        <ele>425.364</ele>
        <time>1970-01-01T01:00:00Z</time>
      </trkpt>
      <trkpt lat="62.782693" lon="14.30909">
        <ele>425.273</ele>
        <time>1970-01-01T01:00:00Z</time>
      </trkpt>
      <trkpt lat="62.782706" lon="14.30928">
        <ele>425.091</ele>
        <time>1970-01-01T01:00:00Z</time>
      </trkpt>
      <trkpt lat="62.782719" lon="14.309459">
        <ele>424.909</ele>
        <time>1970-01-01T01:00:00Z</time>
      </trkpt>
      <trkpt lat="62.782756" lon="14.309623">
        <ele>424.727</ele>
        <time>1970-01-01T01:00:00Z</time>
      </trkpt>
      <trkpt lat="62.782804" lon="14.309766">
        <ele>424.636</ele>
        <time>1970-01-01T01:00:00Z</time>
      </trkpt>
      <trkpt lat="62.782877" lon="14.309888">
        <ele>424.545</ele>
        <time>1970-01-01T01:00:00Z</time>
      </trkpt>
      <trkpt lat="62.78295" lon="14.310004">
        <ele>424.455</ele>
        <time>1970-01-01T01:00:00Z</time>
      </trkpt>
      <trkpt lat="62.78303" lon="14.310148">
        <ele>424.364</ele>
        <time>1970-01-01T01:00:00Z</time>
      </trkpt>
      <trkpt lat="62.783118" lon="14.310236">
        <ele>424.182</ele>
        <time>1970-01-01T01:00:00Z</time>
      </trkpt>
      <trkpt lat="62.783204" lon="14.310274">
        <ele>424</ele>
        <time>1970-01-01T01:00:00Z</time>
      </trkpt>
      <trkpt lat="62.78328" lon="14.310361">
        <ele>423.818</ele>
        <time>1970-01-01T01:00:00Z</time>
      </trkpt>
      <trkpt lat="62.78335" lon="14.31048">
        <ele>423.636</ele>
        <time>1970-01-01T01:00:00Z</time>
      </trkpt>
      <trkpt lat="62.783431" lon="14.310569">
        <ele>423.545</ele>
        <time>1970-01-01T01:00:00Z</time>
      </trkpt>
      <trkpt lat="62.783523" lon="14.310618">
        <ele>423.455</ele>
        <time>1970-01-01T01:00:00Z</time>
      </trkpt>
      <trkpt lat="62.783603" lon="14.310639">
        <ele>423.273</ele>
        <time>1970-01-01T01:00:00Z</time>
      </trkpt>
      <trkpt lat="62.78369" lon="14.310676">
        <ele>423.091</ele>
        <time>1970-01-01T01:00:00Z</time>
      </trkpt>
      <trkpt lat="62.783772" lon="14.310685">
        <ele>422.909</ele>
        <time>1970-01-01T01:00:00Z</time>
      </trkpt>
      <trkpt lat="62.783878" lon="14.310718">
        <ele>422.727</ele>
        <time>1970-01-01T01:00:00Z</time>
      </trkpt>
      <trkpt lat="62.783962" lon="14.310776">
        <ele>422.545</ele>
        <time>1970-01-01T01:00:00Z</time>
      </trkpt>
      <trkpt lat="62.784052" lon="14.310795">
        <ele>422.455</ele>
        <time>1970-01-01T01:00:00Z</time>
      </trkpt>
      <trkpt lat="62.784143" lon="14.310817">
        <ele>422.273</ele>
        <time>1970-01-01T01:00:00Z</time>
      </trkpt>
      <trkpt lat="62.784235" lon="14.310838">
        <ele>422.091</ele>
        <time>1970-01-01T01:00:00Z</time>
      </trkpt>
      <trkpt lat="62.784328" lon="14.310867">
        <ele>421.909</ele>
        <time>1970-01-01T01:00:00Z</time>
      </trkpt>
      <trkpt lat="62.78441" lon="14.310903">
        <ele>421.727</ele>
        <time>1970-01-01T01:00:00Z</time>
      </trkpt>
      <trkpt lat="62.784504" lon="14.310929">
        <ele>421.545</ele>
        <time>1970-01-01T01:00:00Z</time>
      </trkpt>
      <trkpt lat="62.784584" lon="14.310957">
        <ele>421.455</ele>
        <time>1970-01-01T01:00:00Z</time>
      </trkpt>
      <trkpt lat="62.78467" lon="14.310984">
        <ele>421.364</ele>
        <time>1970-01-01T01:00:00Z</time>
      </trkpt>
      <trkpt lat="62.784753" lon="14.310969">
        <ele>421.273</ele>
        <time>1970-01-01T01:00:00Z</time>
      </trkpt>
      <trkpt lat="62.784836" lon="14.310957">
        <ele>421.091</ele>
        <time>1970-01-01T01:00:00Z</time>
      </trkpt>
      <trkpt lat="62.784928" lon="14.310971">
        <ele>420.909</ele>
        <time>1970-01-01T01:00:00Z</time>
      </trkpt>
      <trkpt lat="62.785009" lon="14.311041">
        <ele>420.727</ele>
        <time>1970-01-01T01:00:00Z</time>
      </trkpt>
      <trkpt lat="62.785063" lon="14.311183">
        <ele>420.636</ele>
        <time>1970-01-01T01:00:00Z</time>
      </trkpt>
      <trkpt lat="62.785077" lon="14.311361">
        <ele>420.545</ele>
        <time>1970-01-01T01:00:00Z</time>
      </trkpt>
      <trkpt lat="62.785086" lon="14.311558">
        <ele>420.455</ele>
        <time>1970-01-01T01:00:00Z</time>
      </trkpt>
      <trkpt lat="62.78508" lon="14.31175">
        <ele>420.364</ele>
        <time>1970-01-01T01:00:00Z</time>
      </trkpt>
      <trkpt lat="62.785085" lon="14.311948">
        <ele>420.273</ele>
        <time>1970-01-01T01:00:00Z</time>
      </trkpt>
      <trkpt lat="62.785079" lon="14.312134">
        <ele>420.182</ele>
        <time>1970-01-01T01:00:00Z</time>
      </trkpt>
      <trkpt lat="62.785081" lon="14.312336">
        <ele>420.091</ele>
        <time>1970-01-01T01:00:00Z</time>
      </trkpt>
      <trkpt lat="62.785087" lon="14.312513">
        <ele>420</ele>
        <time>1970-01-01T01:00:00Z</time>
      </trkpt>
      <trkpt lat="62.785091" lon="14.3127">
        <ele>420</ele>
        <time>1970-01-01T01:00:00Z</time>
      </trkpt>
      <trkpt lat="62.785101" lon="14.312959">
        <ele>420</ele>
        <time>1970-01-01T01:00:00Z</time>
      </trkpt>
      <trkpt lat="62.785093" lon="14.313159">
        <ele>420</ele>
        <time>1970-01-01T01:00:00Z</time>
      </trkpt>
      <trkpt lat="62.78509" lon="14.313348">
        <ele>419.909</ele>
        <time>1970-01-01T01:00:00Z</time>
      </trkpt>
      <trkpt lat="62.785091" lon="14.313527">
        <ele>419.818</ele>
        <time>1970-01-01T01:00:00Z</time>
      </trkpt>
      <trkpt lat="62.785086" lon="14.313718">
        <ele>419.727</ele>
        <time>1970-01-01T01:00:00Z</time>
      </trkpt>
      <trkpt lat="62.785079" lon="14.313902">
        <ele>419.636</ele>
        <time>1970-01-01T01:00:00Z</time>
      </trkpt>
      <trkpt lat="62.785092" lon="14.314091">
        <ele>419.545</ele>
        <time>1970-01-01T01:00:00Z</time>
      </trkpt>
      <trkpt lat="62.78508" lon="14.314276">
        <ele>419.455</ele>
        <time>1970-01-01T01:00:00Z</time>
      </trkpt>
      <trkpt lat="62.785053" lon="14.314467">
        <ele>419.364</ele>
        <time>1970-01-01T01:00:00Z</time>
      </trkpt>
      <trkpt lat="62.785059" lon="14.314652">
        <ele>419.273</ele>
        <time>1970-01-01T01:00:00Z</time>
      </trkpt>
      <trkpt lat="62.785067" lon="14.314848">
        <ele>419.182</ele>
        <time>1970-01-01T01:00:00Z</time>
      </trkpt>
      <trkpt lat="62.785106" lon="14.315016">
        <ele>419</ele>
        <time>1970-01-01T01:00:00Z</time>
      </trkpt>
      <trkpt lat="62.785135" lon="14.315201">
        <ele>418.818</ele>
        <time>1970-01-01T01:00:00Z</time>
      </trkpt>
      <trkpt lat="62.785125" lon="14.315402">
        <ele>418.727</ele>
        <time>1970-01-01T01:00:00Z</time>
      </trkpt>
      <trkpt lat="62.785126" lon="14.3156">
        <ele>418.636</ele>
        <time>1970-01-01T01:00:00Z</time>
      </trkpt>
      <trkpt lat="62.785132" lon="14.315786">
        <ele>418.545</ele>
        <time>1970-01-01T01:00:00Z</time>
      </trkpt>
      <trkpt lat="62.785131" lon="14.315981">
        <ele>418.455</ele>
        <time>1970-01-01T01:00:00Z</time>
      </trkpt>
      <trkpt lat="62.785134" lon="14.31618">
        <ele>418.273</ele>
        <time>1970-01-01T01:00:00Z</time>
      </trkpt>
      <trkpt lat="62.785124" lon="14.31636">
        <ele>418.091</ele>
        <time>1970-01-01T01:00:00Z</time>
      </trkpt>
      <trkpt lat="62.785126" lon="14.316538">
        <ele>417.909</ele>
        <time>1970-01-01T01:00:00Z</time>
      </trkpt>
      <trkpt lat="62.785133" lon="14.316735">
        <ele>417.727</ele>
        <time>1970-01-01T01:00:00Z</time>
      </trkpt>
      <trkpt lat="62.785134" lon="14.316914">
        <ele>417.545</ele>
        <time>1970-01-01T01:00:00Z</time>
      </trkpt>
      <trkpt lat="62.785142" lon="14.317107">
        <ele>417.455</ele>
        <time>1970-01-01T01:00:00Z</time>
      </trkpt>
      <trkpt lat="62.785151" lon="14.317289">
        <ele>417.364</ele>
        <time>1970-01-01T01:00:00Z</time>
      </trkpt>
      <trkpt lat="62.785157" lon="14.317478">
        <ele>417.273</ele>
        <time>1970-01-01T01:00:00Z</time>
      </trkpt>
      <trkpt lat="62.785159" lon="14.31767">
        <ele>417.091</ele>
        <time>1970-01-01T01:00:00Z</time>
      </trkpt>
      <trkpt lat="62.785163" lon="14.317851">
        <ele>416.909</ele>
        <time>1970-01-01T01:00:00Z</time>
      </trkpt>
      <trkpt lat="62.785157" lon="14.318046">
        <ele>416.727</ele>
        <time>1970-01-01T01:00:00Z</time>
      </trkpt>
      <trkpt lat="62.785149" lon="14.318224">
        <ele>416.636</ele>
        <time>1970-01-01T01:00:00Z</time>
      </trkpt>
      <trkpt lat="62.785137" lon="14.318412">
        <ele>416.545</ele>
        <time>1970-01-01T01:00:00Z</time>
      </trkpt>
      <trkpt lat="62.785151" lon="14.31859">
        <ele>416.455</ele>
        <time>1970-01-01T01:00:00Z</time>
      </trkpt>
      <trkpt lat="62.785149" lon="14.31878">
        <ele>416.273</ele>
        <time>1970-01-01T01:00:00Z</time>
      </trkpt>
      <trkpt lat="62.785138" lon="14.318972">
        <ele>416.091</ele>
        <time>1970-01-01T01:00:00Z</time>
      </trkpt>
      <trkpt lat="62.785138" lon="14.319171">
        <ele>415.909</ele>
        <time>1970-01-01T01:00:00Z</time>
      </trkpt>
      <trkpt lat="62.785149" lon="14.319352">
        <ele>415.727</ele>
        <time>1970-01-01T01:00:00Z</time>
      </trkpt>
      <trkpt lat="62.785161" lon="14.31953">
        <ele>415.545</ele>
        <time>1970-01-01T01:00:00Z</time>
      </trkpt>
      <trkpt lat="62.785169" lon="14.319732">
        <ele>415.455</ele>
        <time>1970-01-01T01:00:00Z</time>
      </trkpt>
      <trkpt lat="62.785174" lon="14.319922">
        <ele>415.364</ele>
        <time>1970-01-01T01:00:00Z</time>
      </trkpt>
      <trkpt lat="62.785175" lon="14.32012">
        <ele>415.273</ele>
        <time>1970-01-01T01:00:00Z</time>
      </trkpt>
      <trkpt lat="62.785175" lon="14.320323">
        <ele>415.182</ele>
        <time>1970-01-01T01:00:00Z</time>
      </trkpt>
      <trkpt lat="62.785188" lon="14.320522">
        <ele>415.091</ele>
        <time>1970-01-01T01:00:00Z</time>
      </trkpt>
      <trkpt lat="62.785186" lon="14.320724">
        <ele>415</ele>
        <time>1970-01-01T01:00:00Z</time>
      </trkpt>
      <trkpt lat="62.785188" lon="14.320907">
        <ele>415</ele>
        <time>1970-01-01T01:00:00Z</time>
      </trkpt>
      <trkpt lat="62.785187" lon="14.321097">
        <ele>415</ele>
        <time>1970-01-01T01:00:00Z</time>
      </trkpt>
      <trkpt lat="62.785183" lon="14.321281">
        <ele>415</ele>
        <time>1970-01-01T01:00:00Z</time>
      </trkpt>
      <trkpt lat="62.785187" lon="14.32146">
        <ele>415</ele>
        <time>1970-01-01T01:00:00Z</time>
      </trkpt>
      <trkpt lat="62.785193" lon="14.321655">
        <ele>415</ele>
        <time>1970-01-01T01:00:00Z</time>
      </trkpt>
      <trkpt lat="62.785192" lon="14.321836">
        <ele>415</ele>
        <time>1970-01-01T01:00:00Z</time>
      </trkpt>
      <trkpt lat="62.785185" lon="14.322028">
        <ele>415</ele>
        <time>1970-01-01T01:00:00Z</time>
      </trkpt>
      <trkpt lat="62.785176" lon="14.322239">
        <ele>415</ele>
        <time>1970-01-01T01:00:00Z</time>
      </trkpt>
      <trkpt lat="62.785164" lon="14.322424">
        <ele>415</ele>
        <time>1970-01-01T01:00:00Z</time>
      </trkpt>
      <trkpt lat="62.785157" lon="14.32262">
        <ele>415</ele>
        <time>1970-01-01T01:00:00Z</time>
      </trkpt>
      <trkpt lat="62.785147" lon="14.322818">
        <ele>415</ele>
        <time>1970-01-01T01:00:00Z</time>
      </trkpt>
      <trkpt lat="62.78513" lon="14.323023">
        <ele>415</ele>
        <time>1970-01-01T01:00:00Z</time>
      </trkpt>
      <trkpt lat="62.785115" lon="14.323217">
        <ele>415.091</ele>
        <time>1970-01-01T01:00:00Z</time>
      </trkpt>
      <trkpt lat="62.785095" lon="14.323407">
        <ele>415.182</ele>
        <time>1970-01-01T01:00:00Z</time>
      </trkpt>
      <trkpt lat="62.785066" lon="14.323598">
        <ele>415.273</ele>
        <time>1970-01-01T01:00:00Z</time>
      </trkpt>
      <trkpt lat="62.78504" lon="14.323795">
        <ele>415.364</ele>
        <time>1970-01-01T01:00:00Z</time>
      </trkpt>
      <trkpt lat="62.785017" lon="14.32398">
        <ele>415.545</ele>
        <time>1970-01-01T01:00:00Z</time>
      </trkpt>
      <trkpt lat="62.784993" lon="14.32417">
        <ele>415.727</ele>
        <time>1970-01-01T01:00:00Z</time>
      </trkpt>
      <trkpt lat="62.784962" lon="14.324374">
        <ele>415.909</ele>
        <time>1970-01-01T01:00:00Z</time>
      </trkpt>
      <trkpt lat="62.784931" lon="14.324547">
        <ele>416.182</ele>
        <time>1970-01-01T01:00:00Z</time>
      </trkpt>
      <trkpt lat="62.784897" lon="14.324797">
        <ele>416.455</ele>
        <time>1970-01-01T01:00:00Z</time>
      </trkpt>
      <trkpt lat="62.784859" lon="14.325003">
        <ele>416.727</ele>
        <time>1970-01-01T01:00:00Z</time>
      </trkpt>
      <trkpt lat="62.784828" lon="14.325169">
        <ele>417.091</ele>
        <time>1970-01-01T01:00:00Z</time>
      </trkpt>
      <trkpt lat="62.784781" lon="14.325384">
        <ele>417.364</ele>
        <time>1970-01-01T01:00:00Z</time>
      </trkpt>
      <trkpt lat="62.784774" lon="14.325599">
        <ele>417.636</ele>
        <time>1970-01-01T01:00:00Z</time>
      </trkpt>
      <trkpt lat="62.784712" lon="14.325728">
        <ele>418</ele>
        <time>1970-01-01T01:00:00Z</time>
      </trkpt>
      <trkpt lat="62.784691" lon="14.3259">
        <ele>418.364</ele>
        <time>1970-01-01T01:00:00Z</time>
      </trkpt>
      <trkpt lat="62.784651" lon="14.326066">
        <ele>418.727</ele>
        <time>1970-01-01T01:00:00Z</time>
      </trkpt>
      <trkpt lat="62.78461" lon="14.326239">
        <ele>419.091</ele>
        <time>1970-01-01T01:00:00Z</time>
      </trkpt>
      <trkpt lat="62.78457" lon="14.326421">
        <ele>419.455</ele>
        <time>1970-01-01T01:00:00Z</time>
      </trkpt>
      <trkpt lat="62.784533" lon="14.326595">
        <ele>419.818</ele>
        <time>1970-01-01T01:00:00Z</time>
      </trkpt>
      <trkpt lat="62.784492" lon="14.326758">
        <ele>420.182</ele>
        <time>1970-01-01T01:00:00Z</time>
      </trkpt>
      <trkpt lat="62.784441" lon="14.326921">
        <ele>420.545</ele>
        <time>1970-01-01T01:00:00Z</time>
      </trkpt>
      <trkpt lat="62.784398" lon="14.327109">
        <ele>420.909</ele>
        <time>1970-01-01T01:00:00Z</time>
      </trkpt>
      <trkpt lat="62.784362" lon="14.327304">
        <ele>421.364</ele>
        <time>1970-01-01T01:00:00Z</time>
      </trkpt>
      <trkpt lat="62.784321" lon="14.327483">
        <ele>421.818</ele>
        <time>1970-01-01T01:00:00Z</time>
      </trkpt>
      <trkpt lat="62.784281" lon="14.327657">
        <ele>422.273</ele>
        <time>1970-01-01T01:00:00Z</time>
      </trkpt>
      <trkpt lat="62.784249" lon="14.327837">
        <ele>422.727</ele>
        <time>1970-01-01T01:00:00Z</time>
      </trkpt>
      <trkpt lat="62.784208" lon="14.328016">
        <ele>423.182</ele>
        <time>1970-01-01T01:00:00Z</time>
      </trkpt>
      <trkpt lat="62.784179" lon="14.328203">
        <ele>423.636</ele>
        <time>1970-01-01T01:00:00Z</time>
      </trkpt>
      <trkpt lat="62.784129" lon="14.328357">
        <ele>424.182</ele>
        <time>1970-01-01T01:00:00Z</time>
      </trkpt>
      <trkpt lat="62.784076" lon="14.328521">
        <ele>424.727</ele>
        <time>1970-01-01T01:00:00Z</time>
      </trkpt>
      <trkpt lat="62.784021" lon="14.328694">
        <ele>425.273</ele>
        <time>1970-01-01T01:00:00Z</time>
      </trkpt>
      <trkpt lat="62.78398" lon="14.328851">
        <ele>425.909</ele>
        <time>1970-01-01T01:00:00Z</time>
      </trkpt>
      <trkpt lat="62.783928" lon="14.329007">
        <ele>426.455</ele>
        <time>1970-01-01T01:00:00Z</time>
      </trkpt>
      <trkpt lat="62.783871" lon="14.329176">
        <ele>427</ele>
        <time>1970-01-01T01:00:00Z</time>
      </trkpt>
      <trkpt lat="62.783816" lon="14.329313">
        <ele>427.545</ele>
        <time>1970-01-01T01:00:00Z</time>
      </trkpt>
      <trkpt lat="62.783768" lon="14.329487">
        <ele>428.091</ele>
        <time>1970-01-01T01:00:00Z</time>
      </trkpt>
      <trkpt lat="62.783708" lon="14.329636">
        <ele>428.636</ele>
        <time>1970-01-01T01:00:00Z</time>
      </trkpt>
      <trkpt lat="62.783641" lon="14.329781">
        <ele>429.182</ele>
        <time>1970-01-01T01:00:00Z</time>
      </trkpt>
      <trkpt lat="62.78359" lon="14.329923">
        <ele>429.727</ele>
        <time>1970-01-01T01:00:00Z</time>
      </trkpt>
      <trkpt lat="62.783526" lon="14.33007">
        <ele>430.273</ele>
        <time>1970-01-01T01:00:00Z</time>
      </trkpt>
      <trkpt lat="62.783464" lon="14.330217">
        <ele>430.727</ele>
        <time>1970-01-01T01:00:00Z</time>
      </trkpt>
      <trkpt lat="62.783403" lon="14.330356">
        <ele>431.273</ele>
        <time>1970-01-01T01:00:00Z</time>
      </trkpt>
      <trkpt lat="62.78334" lon="14.330488">
        <ele>431.727</ele>
        <time>1970-01-01T01:00:00Z</time>
      </trkpt>
      <trkpt lat="62.783274" lon="14.330624">
        <ele>432.182</ele>
        <time>1970-01-01T01:00:00Z</time>
      </trkpt>
      <trkpt lat="62.783213" lon="14.330771">
        <ele>432.545</ele>
        <time>1970-01-01T01:00:00Z</time>
      </trkpt>
      <trkpt lat="62.783141" lon="14.330902">
        <ele>432.909</ele>
        <time>1970-01-01T01:00:00Z</time>
      </trkpt>
      <trkpt lat="62.783074" lon="14.331014">
        <ele>433.273</ele>
        <time>1970-01-01T01:00:00Z</time>
      </trkpt>
      <trkpt lat="62.783006" lon="14.331129">
        <ele>433.636</ele>
        <time>1970-01-01T01:00:00Z</time>
      </trkpt>
      <trkpt lat="62.782934" lon="14.331237">
        <ele>434</ele>
        <time>1970-01-01T01:00:00Z</time>
      </trkpt>
      <trkpt lat="62.782868" lon="14.331348">
        <ele>434.364</ele>
        <time>1970-01-01T01:00:00Z</time>
      </trkpt>
      <trkpt lat="62.782801" lon="14.331465">
        <ele>434.636</ele>
        <time>1970-01-01T01:00:00Z</time>
      </trkpt>
      <trkpt lat="62.782727" lon="14.331588">
        <ele>434.909</ele>
        <time>1970-01-01T01:00:00Z</time>
      </trkpt>
      <trkpt lat="62.782657" lon="14.331712">
        <ele>435.182</ele>
        <time>1970-01-01T01:00:00Z</time>
      </trkpt>
      <trkpt lat="62.782593" lon="14.331826">
        <ele>435.455</ele>
        <time>1970-01-01T01:00:00Z</time>
      </trkpt>
      <trkpt lat="62.782531" lon="14.331945">
        <ele>435.727</ele>
        <time>1970-01-01T01:00:00Z</time>
      </trkpt>
      <trkpt lat="62.782455" lon="14.332066">
        <ele>436</ele>
        <time>1970-01-01T01:00:00Z</time>
      </trkpt>
      <trkpt lat="62.782375" lon="14.332142">
        <ele>436.273</ele>
        <time>1970-01-01T01:00:00Z</time>
      </trkpt>
      <trkpt lat="62.782315" lon="14.332286">
        <ele>436.455</ele>
        <time>1970-01-01T01:00:00Z</time>
      </trkpt>
      <trkpt lat="62.782244" lon="14.332421">
        <ele>436.727</ele>
        <time>1970-01-01T01:00:00Z</time>
      </trkpt>
      <trkpt lat="62.782179" lon="14.332538">
        <ele>436.909</ele>
        <time>1970-01-01T01:00:00Z</time>
      </trkpt>
      <trkpt lat="62.782107" lon="14.332629">
        <ele>437.182</ele>
        <time>1970-01-01T01:00:00Z</time>
      </trkpt>
      <trkpt lat="62.782035" lon="14.332736">
        <ele>437.455</ele>
        <time>1970-01-01T01:00:00Z</time>
      </trkpt>
      <trkpt lat="62.781962" lon="14.332862">
        <ele>437.727</ele>
        <time>1970-01-01T01:00:00Z</time>
      </trkpt>
      <trkpt lat="62.781893" lon="14.332972">
        <ele>437.909</ele>
        <time>1970-01-01T01:00:00Z</time>
      </trkpt>
      <trkpt lat="62.781815" lon="14.333085">
        <ele>438.091</ele>
        <time>1970-01-01T01:00:00Z</time>
      </trkpt>
      <trkpt lat="62.781745" lon="14.333206">
        <ele>438.364</ele>
        <time>1970-01-01T01:00:00Z</time>
      </trkpt>
      <trkpt lat="62.781681" lon="14.333317">
        <ele>438.636</ele>
        <time>1970-01-01T01:00:00Z</time>
      </trkpt>
      <trkpt lat="62.78161" lon="14.333427">
        <ele>438.909</ele>
        <time>1970-01-01T01:00:00Z</time>
      </trkpt>
      <trkpt lat="62.781538" lon="14.333547">
        <ele>439.273</ele>
        <time>1970-01-01T01:00:00Z</time>
      </trkpt>
      <trkpt lat="62.781479" lon="14.33367">
        <ele>439.545</ele>
        <time>1970-01-01T01:00:00Z</time>
      </trkpt>
      <trkpt lat="62.781415" lon="14.33378">
        <ele>439.909</ele>
        <time>1970-01-01T01:00:00Z</time>
      </trkpt>
      <trkpt lat="62.781345" lon="14.33389">
        <ele>440.182</ele>
        <time>1970-01-01T01:00:00Z</time>
      </trkpt>
      <trkpt lat="62.781265" lon="14.333991">
        <ele>440.455</ele>
        <time>1970-01-01T01:00:00Z</time>
      </trkpt>
      <trkpt lat="62.781191" lon="14.334115">
        <ele>440.727</ele>
        <time>1970-01-01T01:00:00Z</time>
      </trkpt>
      <trkpt lat="62.781129" lon="14.33423">
        <ele>441.091</ele>
        <time>1970-01-01T01:00:00Z</time>
      </trkpt>
      <trkpt lat="62.781068" lon="14.334359">
        <ele>441.455</ele>
        <time>1970-01-01T01:00:00Z</time>
      </trkpt>
      <trkpt lat="62.781" lon="14.334501">
        <ele>441.818</ele>
        <time>1970-01-01T01:00:00Z</time>
      </trkpt>
      <trkpt lat="62.780936" lon="14.334637">
        <ele>442.182</ele>
        <time>1970-01-01T01:00:00Z</time>
      </trkpt>
      <trkpt lat="62.780877" lon="14.334782">
        <ele>442.545</ele>
        <time>1970-01-01T01:00:00Z</time>
      </trkpt>
      <trkpt lat="62.780818" lon="14.334935">
        <ele>442.7</ele>
        <time>1970-01-01T01:00:00Z</time>
      </trkpt>
      <trkpt lat="62.780759" lon="14.335077">
        <ele>442.889</ele>
        <time>1970-01-01T01:00:00Z</time>
      </trkpt>
      <trkpt lat="62.780702" lon="14.335226">
        <ele>443</ele>
        <time>1970-01-01T01:00:00Z</time>
      </trkpt>
      <trkpt lat="62.780646" lon="14.335387">
        <ele>443.333</ele>
        <time>1970-01-01T01:00:00Z</time>
      </trkpt>
    </trkseg>
  </trk>
</gpx>